This demonstration page uses our WeatherBlox Daily Observations layout. Learn more.

Left ArrowRight Arrow

34.02893, -84.19858

Hourly Observations for March 2, 2022

Temp ( °F °C ) Dew Point ( °F °C ) Humidity (%) Winds ( mph kmh ) Pressure ( in mb ) Visibility ( mi km ) Precip ( " mm )
12:53 am 00:53 Clear 45 7.2 30 -1.1 56 56 Calm 30.14 1021 10 16 0.00 0.00
1:53 am 01:53 Clear 44 6.7 32 0 63 63 WNW 3 6 30.15 1021 10 16 0.00 0.00
2:53 am 02:53 Clear 45 7.2 31 -0.6 58 58 Calm 30.14 1021 10 16 0.00 0.00
3:53 am 03:53 Clear 41 5 32 0 70 70 Calm 30.13 1020 10 16 0.00 0.00
4:53 am 04:53 Clear 40 4.4 32 0 73 73 Calm 30.13 1020 10 16 0.00 0.00
5:53 am 05:53 Clear 38 3.3 32 0 79 79 Calm 30.14 1021 10 16 0.00 0.00
6:53 am 06:53 Clear 38 3.3 33 0.6 83 83 Calm 30.16 1021 10 16 0.00 0.00
7:53 am 07:53 Sunny 42 5.6 36 2.2 79 79 Calm 30.17 1022 10 16 0.00 0.00
8:53 am 08:53 Sunny 53 11.7 34 1.1 48 48 W 5 7 30.18 1022 10 16 0.00 0.00
9:53 am 09:53 Sunny 59 15 35 1.7 41 41 W 6 9 30.18 1022 10 16 0.00 0.00
10:53 am 10:53 Sunny 65 18.3 33 0.6 31 31 VRB 6 9 30.18 1022 10 16 0.00 0.00
11:53 am 11:53 Sunny 68 20 32 0 26 26 WNW 9 15 30.16 1022 10 16 0.00 0.00
12:53 pm 12:53 Sunny 72 22.2 31 -0.6 22 22 WNW 8 13 30.14 1021 10 16 0.00 0.00
1:53 pm 13:53 Sunny 74 23.3 32 0 21 21 W 8 13 30.11 1020 10 16 0.00 0.00
2:53 pm 14:53 Sunny 75 23.9 28 -2.2 18 18 W 6 9 30.09 1019 10 16 0.00 0.00
3:53 pm 15:53 Sunny 75 23.9 29 -1.7 18 18 WNW 13 20 30.08 1019 10 16 0.00 0.00
4:53 pm 16:53 Sunny 75 23.9 26 -3.3 16 16 NW 10 17 30.08 1019 10 16 0.00 0.00
6:53 pm 18:53 Clear 68 20 27 -2.8 21 21 W 3 6 30.11 1020 10 16 0.00 0.00
7:53 pm 19:53 Clear 63 17.2 30 -1.1 29 29 Calm 30.13 1020 10 16 0.00 0.00
8:53 pm 20:53 Clear 56 13.3 33 0.6 42 42 Calm 30.13 1020 10 16 0.00 0.00
9:53 pm 21:53 Clear 53 11.7 34 1.1 48 48 Calm 30.13 1020 10 16 0.00 0.00
10:53 pm 22:53 Clear 52 11.1 34 1.1 50 50 Calm 30.12 1020 10 16 0.00 0.00
11:53 pm 23:53 Clear 51 10.6 34 1.1 52 52 Calm 30.11 1020 10 16 0.00 0.00

Powered by AerisWeather